When you browse on this site, cookies collect data to enhance your experience and personalize the content and advertising you see.
Visit our Privacy Policy to learn more. By continuing to use the site, you agree to this use of cookies and data.
EN

Hourly Weather Mochudi

Today, 9 July, Thursday

Time Temperature Precipitation Wind Pressure Humidity
00:00 +11°C° 0 mm 3 mps 684 mmHg 77%
01:00 +11°C° 0 mm 3 mps 684 mmHg 82%
02:00 +11°C° 0 mm 3 mps 684 mmHg 86%
03:00 +10°C° 0 mm 3 mps 684 mmHg 89%
04:00 +10°C° 0 mm 3 mps 683 mmHg 92%
05:00 +9°C° 0 mm 2 mps 683 mmHg 95%
06:00 +10°C° 0 mm 3 mps 683 mmHg 94%
07:00 +10°C° 0 mm 3 mps 683 mmHg 92%
08:00 +10°C° 0 mm 3 mps 684 mmHg 91%
09:00 +13°C° 0 mm 4 mps 684 mmHg 80%
10:00 +16°C° 0 mm 5 mps 685 mmHg 69%
11:00 +19°C° 0 mm 6 mps 685 mmHg 57%
12:00 +21°C° 0 mm 5 mps 684 mmHg 51%
13:00 +22°C° 0 mm 5 mps 684 mmHg 46%
14:00 +23°C° 0 mm 5 mps 683 mmHg 40%
15:00 +23°C° 0 mm 5 mps 682 mmHg 41%
16:00 +22°C° 0 mm 4 mps 682 mmHg 42%
17:00 +22°C° 0 mm 4 mps 681 mmHg 42%
18:00 +20°C° 0 mm 4 mps 681 mmHg 52%
19:00 +17°C° 0 mm 3 mps 681 mmHg 61%
20:00 +14°C° 0 mm 3 mps 681 mmHg 70%
21:00 +14°C° 0 mm 3 mps 681 mmHg 74%
22:00 +14°C° 0 mm 2 mps 680 mmHg 78%
23:00 +13°C° 0 mm 2 mps 680 mmHg 83%

Tomorrow, 10 July, Friday

Time Temperature Precipitation Wind Pressure Humidity
00:00 +12°C° 0 mm 2 mps 680 mmHg 84%
01:00 +12°C° 0 mm 1 mps 680 mmHg 86%
02:00 +12°C° 0 mm 1 mps 680 mmHg 88%
03:00 +11°C° 0 mm 1 mps 680 mmHg 89%
04:00 +11°C° 0 mm 1 mps 680 mmHg 90%
05:00 +10°C° 0 mm 2 mps 679 mmHg 91%
06:00 +10°C° 0 mm 2 mps 680 mmHg 88%
07:00 +12°C° 0 mm 2 mps 680 mmHg 85%
08:00 +12°C° 0 mm 2 mps 680 mmHg 83%
09:00 +16°C° 0 mm 3 mps 681 mmHg 68%
10:00 +19°C° 0 mm 3 mps 681 mmHg 53%
11:00 +23°C° 0 mm 4 mps 682 mmHg 38%
12:00 +26°C° 0 mm 4 mps 681 mmHg 32%
13:00 +28°C° 0 mm 4 mps 680 mmHg 27%
14:00 +29°C° 0 mm 5 mps 679 mmHg 22%
15:00 +29°C° 0 mm 4 mps 679 mmHg 22%
16:00 +28°C° 0 mm 4 mps 679 mmHg 23%
17:00 +28°C° 0 mm 3 mps 678 mmHg 23%
18:00 +26°C° 0 mm 3 mps 678 mmHg 27%
19:00 +22°C° 0 mm 3 mps 678 mmHg 31%
20:00 +20°C° 0 mm 3 mps 678 mmHg 35%
21:00 +19°C° 0 mm 3 mps 678 mmHg 37%
22:00 +19°C° 0 mm 3 mps 678 mmHg 39%
23:00 +18°C° 0 mm 3 mps 677 mmHg 41%

Day after tomorrow, 11 July, Saturday

Time Temperature Precipitation Wind Pressure Humidity
00:00 +18°C° 0 mm 4 mps 677 mmHg 42%
01:00 +18°C° 0 mm 4 mps 677 mmHg 43%
02:00 +18°C° 0 mm 4 mps 677 mmHg 43%
03:00 +15°C° 0 mm 5 mps 678 mmHg 43%
04:00 +14°C° 0 mm 5 mps 678 mmHg 42%
05:00 +13°C° 0 mm 6 mps 679 mmHg 41%
06:00 +11°C° 0 mm 6 mps 680 mmHg 48%
07:00 +10°C° 0 mm 6 mps 681 mmHg 54%
08:00 +10°C° 0 mm 6 mps 682 mmHg 61%
09:00 +11°C° 0 mm 6 mps 682 mmHg 51%
10:00 +13°C° 0 mm 6 mps 683 mmHg 40%
11:00 +14°C° 0 mm 6 mps 683 mmHg 30%
12:00 +15°C° 0 mm 6 mps 683 mmHg 25%
13:00 +16°C° 0 mm 6 mps 683 mmHg 20%
14:00 +17°C° 0 mm 5 mps 683 mmHg 15%
15:00 +17°C° 0 mm 5 mps 683 mmHg 16%
16:00 +16°C° 0 mm 5 mps 683 mmHg 16%
17:00 +17°C° 0 mm 4 mps 683 mmHg 16%
18:00 +14°C° 0 mm 4 mps 683 mmHg 21%
19:00 +11°C° 0 mm 3 mps 683 mmHg 25%
20:00 +9°C° 0 mm 3 mps 683 mmHg 29%
21:00 +9°C° 0 mm 3 mps 684 mmHg 30%
22:00 +8°C° 0 mm 3 mps 684 mmHg 32%
23:00 +7°C° 0 mm 3 mps 684 mmHg 34%

12 July, Sunday

Time Temperature Precipitation Wind Pressure Humidity
00:00 +7°C° 0 mm 3 mps 684 mmHg 34%
01:00 +5°C° 0 mm 3 mps 684 mmHg 35%
02:00 +4°C° 0 mm 3 mps 684 mmHg 36%
03:00 +4°C° 0 mm 3 mps 684 mmHg 37%
04:00 +3°C° 0 mm 3 mps 684 mmHg 38%
05:00 +4°C° 0 mm 2 mps 684 mmHg 39%
06:00 +4°C° 0 mm 2 mps 684 mmHg 38%
07:00 +4°C° 0 mm 2 mps 685 mmHg 37%
08:00 +5°C° 0 mm 2 mps 685 mmHg 36%
09:00 +8°C° 0 mm 3 mps 686 mmHg 30%
10:00 +11°C° 0 mm 4 mps 686 mmHg 23%
11:00 +15°C° 0 mm 5 mps 687 mmHg 17%
12:00 +16°C° 0 mm 5 mps 686 mmHg 15%
13:00 +17°C° 0 mm 5 mps 685 mmHg 14%
14:00 +20°C° 0 mm 5 mps 685 mmHg 13%
15:00 +19°C° 0 mm 4 mps 685 mmHg 13%
16:00 +19°C° 0 mm 4 mps 684 mmHg 14%
17:00 +19°C° 0 mm 3 mps 684 mmHg 14%
18:00 +16°C° 0 mm 3 mps 684 mmHg 18%
19:00 +13°C° 0 mm 3 mps 684 mmHg 22%
20:00 +10°C° 0 mm 3 mps 684 mmHg 26%
21:00 +10°C° 0 mm 3 mps 684 mmHg 31%
22:00 +9°C° 0 mm 3 mps 684 mmHg 37%
23:00 +9°C° 0 mm 3 mps 684 mmHg 42%

13 July, Monday

Time Temperature Precipitation Wind Pressure Humidity
00:00 +8°C° 0 mm 2 mps 684 mmHg 45%
01:00 +7°C° 0 mm 2 mps 683 mmHg 48%
02:00 +6°C° 0 mm 2 mps 683 mmHg 51%
03:00 +5°C° 0 mm 2 mps 683 mmHg 54%
04:00 +5°C° 0 mm 1 mps 683 mmHg 56%
05:00 +5°C° 0 mm 1 mps 682 mmHg 59%
06:00 +5°C° 0 mm 1 mps 683 mmHg 57%
07:00 +6°C° 0 mm 1 mps 683 mmHg 56%
08:00 +7°C° 0 mm 1 mps 684 mmHg 54%
09:00 +10°C° 0 mm 1 mps 684 mmHg 50%
10:00 +13°C° 0 mm 2 mps 684 mmHg 46%
11:00 +16°C° 0 mm 2 mps 684 mmHg 42%
12:00 +18°C° 0 mm 2 mps 684 mmHg 36%
13:00 +21°C° 0 mm 1 mps 683 mmHg 30%
14:00 +23°C° 0 mm 1 mps 683 mmHg 23%
15:00 +23°C° 0 mm 1 mps 682 mmHg 24%
16:00 +22°C° 0 mm 1 mps 682 mmHg 24%
17:00 +21°C° 0 mm 1 mps 682 mmHg 24%
18:00 +19°C° 0 mm 1 mps 681 mmHg 29%
19:00 +16°C° 0 mm 1 mps 681 mmHg 33%
20:00 +13°C° 0 mm 1 mps 681 mmHg 37%
21:00 +13°C° 0 mm 1 mps 681 mmHg 40%
22:00 +12°C° 0 mm 1 mps 681 mmHg 42%
23:00 +10°C° 0 mm 0 mps 680 mmHg 44%

14 July, Tuesday

Time Temperature Precipitation Wind Pressure Humidity
00:00 +9°C° 0 mm 0 mps 680 mmHg 45%
01:00 +9°C° 0 mm 0 mps 680 mmHg 46%
02:00 +8°C° 0 mm 0 mps 680 mmHg 48%
03:00 +8°C° 0 mm 0 mps 680 mmHg 49%
04:00 +8°C° 0 mm 0 mps 680 mmHg 50%
05:00 +7°C° 0 mm 0 mps 680 mmHg 51%
06:00 +8°C° 0 mm 0 mps 680 mmHg 48%
07:00 +9°C° 0 mm 0 mps 681 mmHg 46%
08:00 +10°C° 0 mm 0 mps 682 mmHg 43%
09:00 +14°C° 0 mm 0 mps 683 mmHg 36%
10:00 +17°C° 0 mm 0 mps 683 mmHg 28%
11:00 +21°C° 0 mm 0 mps 684 mmHg 21%
12:00 +24°C° 0 mm 1 mps 684 mmHg 18%
13:00 +25°C° 0 mm 2 mps 683 mmHg 15%
14:00 +27°C° 0 mm 3 mps 683 mmHg 12%
15:00 +26°C° 0 mm 2 mps 683 mmHg 11%
16:00 +26°C° 0 mm 2 mps 682 mmHg 11%
17:00 +25°C° 0 mm 2 mps 682 mmHg 11%
18:00 +23°C° 0 mm 2 mps 682 mmHg 11%
19:00 +19°C° 0 mm 3 mps 682 mmHg 12%
20:00 +16°C° 0 mm 3 mps 682 mmHg 13%
21:00 +14°C° 0 mm 4 mps 683 mmHg 14%
22:00 +13°C° 0 mm 4 mps 683 mmHg 15%
23:00 +12°C° 0 mm 4 mps 683 mmHg 16%
Show more